FW5890 Weather Reports


Display with metric or nautical units.
time (UTC)temp
F
wind
direction
speed
MPH
gust
MPH
rain 1hr
in
rain 24hr
in
rain mn
in
humidity
%
barometer
mb
20260901190109 84 311 0.0 3.0 0.00 0.00 0.00 59 1012.4
20260901185544 85 313 0.0 3.0 0.00 0.00 0.00 60 1012.3
20260901185027 85 296 0.0 3.0 0.00 0.00 0.00 57 1012.2
20260901184604 86 307 0.0 4.0 0.00 0.00 0.00 58 1012.2
20260901184119 86 308 1.0 4.0 0.00 0.00 0.00 55 1012.3
20260901183538 87 192 0.0 2.0 0.00 0.00 0.00 56 1011.9
20260901183033 87 193 0.0 3.0 0.00 0.00 0.00 57 1012.0
20260901182605 86 193 1.0 3.0 0.00 0.00 0.00 55 1012.1
20260901182039 86 199 1.0 3.0 0.00 0.00 0.00 59 1012.2
20260901181558 85 210 0.0 4.0 0.00 0.00 0.00 60 1012.4
20260901181009 85 319 1.0 4.0 0.00 0.00 0.00 58 1012.5
20260901180532 84 312 0.0 3.0 0.00 0.00 0.00 62 1012.6
20260901180049 84 309 0.0 3.0 0.00 0.00 0.00 60 1012.6
20260901175608 84 309 0.0 3.0 0.00 0.00 0.00 58 1012.8
20260901175043 84 302 0.0 3.0 0.00 0.00 0.00 61 1012.8
20260901174604 84 302 0.0 2.0 0.00 0.00 0.00 59 1012.8
20260901174019 85 302 1.0 2.0 0.00 0.00 0.00 58 1012.8
20260901173557 84 304 1.0 2.0 0.00 0.00 0.00 59 1012.8
20260901173006 84 301 0.0 2.0 0.00 0.00 0.00 59 1012.9
20260901172527 84 301 0.0 3.0 0.00 0.00 0.00 60 1013.0
20260901172001 84 301 1.0 3.0 0.00 0.00 0.00 55 1013.1
20260901171527 85 301 0.0 3.0 0.00 0.00 0.00 59 1013.1
20260901171105 85 299 1.0 3.0 0.00 0.00 0.00 59 1013.1
20260901170523 85 303 0.0 3.0 0.00 0.00 0.00 61 1013.1
20260901170004 84 307 0.0 3.0 0.00 0.00 0.00 63 1013.0
20260901165532 84 307 0.0 3.0 0.00 0.00 0.00 62 1013.1
20260901165007 83 96 0.0 4.0 0.00 0.00 0.00 66 1013.1
20260901164608 83 315 1.0 4.0 0.00 0.00 0.00 61 1013.1
20260901164025 83 93 0.0 3.0 0.00 0.00 0.00 61 1013.1
20260901163545 82 88 1.0 5.0 0.00 0.00 0.00 67 1013.2
20260901163040 82 295 2.0 5.0 0.00 0.00 0.00 65 1013.2
20260901162601 82 316 0.0 5.0 0.00 0.00 0.00 70 1013.2
20260901162033 82 304 2.0 5.0 0.00 0.00 0.00 66 1013.1
20260901161509 81 302 0.0 4.0 0.00 0.00 0.00 68 1013.3
20260901161053 81 302 0.0 4.0 0.00 0.00 0.00 67 1013.2
20260901160518 80 300 0.0 3.0 0.00 0.00 0.00 66 1013.1
20260901160107 80 300 0.0 3.0 0.00 0.00 0.00 71 1013.0
20260901155526 79 277 1.0 4.0 0.00 0.00 0.00 69 1013.0
20260901155059 79 301 2.0 4.0 0.00 0.00 0.00 71 1013.1
20260901154533 80 313 1.0 4.0 0.00 0.00 0.00 70 1012.9
20260901154014 79 318 0.0 2.0 0.00 0.00 0.00 74 1012.9
20260901153600 79 318 0.0 1.0 0.00 0.00 0.00 72 1013.1
20260901153016 79 316 0.0 4.0 0.00 0.00 0.00 74 1013.0
20260901152536 78 317 0.0 4.0 0.00 0.00 0.00 74 1013.1
20260901152056 78 311 0.0 3.0 0.00 0.00 0.00 73 1013.1
20260901151510 78 293 1.0 3.0 0.00 0.00 0.00 71 1013.1
20260901151027 78 314 0.0 3.0 0.00 0.00 0.00 74 1013.0
20260901150501 78 70 0.0 3.0 0.00 0.00 0.00 76 1013.3
20260901150045 77 315 1.0 5.0 0.00 0.00 0.00 74 1013.3
20260901145519 77 317 0.0 5.0 0.00 0.00 0.00 75 1013.3
20260901145102 77 309 1.0 4.0 0.00 0.00 0.00 75 1013.3
20260901144513 76 318 2.0 5.0 0.00 0.00 0.00 73 1013.4
20260901144056 76 311 0.0 3.0 0.00 0.00 0.00 76 1013.4
20260901143522 76 297 0.0 4.0 0.00 0.00 0.00 79 1013.4
20260901143007 75 298 0.0 4.0 0.00 0.00 0.00 78 1013.4
20260901142653 75 302 1.0 3.0 0.00 0.00 0.00 79 1013.3
20260901142024 74 298 1.0 4.0 0.00 0.00 0.00 80 1013.4
20260901141609 74 298 2.0 4.0 0.00 0.00 0.00 80 1013.4
20260901141025 73 317 1.0 4.0 0.00 0.00 0.00 82 1013.4
20260901140606 73 257 1.0 3.0 0.00 0.00 0.00 83 1013.5
20260901140058 72 270 1.0 4.0 0.00 0.00 0.00 83 1013.5
20260901135515 71 320 2.0 4.0 0.00 0.00 0.00 85 1013.5
20260901135036 71 304 1.0 4.0 0.00 0.00 0.00 87 1013.5
20260901134611 70 309 0.0 4.0 0.00 0.00 0.00 89 1013.6
20260901134014 69 309 1.0 4.0 0.00 0.00 0.00 90 1013.7
20260901133542 69 309 1.0 4.0 0.00 0.00 0.00 92 1013.7
20260901133005 68 305 0.0 4.0 0.00 0.00 0.00 95 1013.8
20260901132539 68 302 1.0 3.0 0.00 0.00 0.00 95 1013.8
20260901132057 67 302 0.0 2.0 0.00 0.00 0.00 96 1013.7
20260901131515 67 302 0.0 2.0 0.00 0.00 0.00 96 1013.6
20260901131052 66 301 1.0 2.0 0.00 0.00 0.00 97 1013.5
20260901130512 66 313 0.0 2.0 0.00 0.00 0.00 97 1013.5
20260901130043 66 313 0.0 0.0 0.00 0.00 0.00 97 1013.4
20260901125604 66 313 0.0 2.0 0.00 0.00 0.00 97 1013.4
20260901125042 66 313 0.0 2.0 0.00 0.00 0.00 98 1013.4
20260901124510 66 313 0.0 0.0 0.00 0.00 0.00 98 1013.3
20260901124057 65 313 0.0 0.0 0.00 0.00 0.00 98 1013.3
20260901123515 65 313 0.0 0.0 0.00 0.00 0.00 98 1013.2
20260901123043 65 313 0.0 0.0 0.00 0.00 0.00 98 1013.3
20260901122517 64 313 0.0 0.0 0.00 0.00 0.00 98 1013.3
20260901122041 64 313 0.0 2.0 0.00 0.00 0.00 97 1013.2
20260901121605 64 313 0.0 2.0 0.00 0.00 0.00 98 1013.2
20260901121027 63 313 0.0 2.0 0.00 0.00 0.00 98 1013.1
20260901120600 63 313 0.0 1.0 0.00 0.00 0.00 98 1013.0
20260901120051 63 313 0.0 0.0 0.00 0.00 0.00 97 1012.9
20260901115513 62 313 0.0 0.0 0.00 0.00 0.00 98 1012.9
20260901115059 62 313 0.0 0.0 0.00 0.00 0.00 97 1012.9
20260901114535 62 313 0.0 0.0 0.00 0.00 0.00 97 1012.7
20260901114058 62 313 0.0 0.0 0.00 0.00 0.00 97 1012.8
20260901113535 62 313 0.0 0.0 0.00 0.00 0.00 97 1012.7
20260901113015 62 313 0.0 0.0 0.00 0.00 0.00 96 1012.6
20260901112606 62 313 0.0 0.0 0.00 0.00 0.00 97 1012.5
20260901112040 62 313 0.0 0.0 0.00 0.00 0.00 96 1012.4
20260901111516 62 313 0.0 0.0 0.00 0.00 0.00 97 1012.3
20260901111046 62 313 0.0 0.0 0.00 0.00 0.00 97 1012.1
20260901110542 62 313 0.0 0.0 0.00 0.00 0.00 97 1012.1
20260901110003 62 313 0.0 0.0 0.00 0.00 0.00 97 1012.2
20260901105550 62 313 0.0 0.0 0.00 0.00 0.00 97 1012.2
20260901105029 62 313 0.0 0.0 0.00 0.00 0.00 96 1012.1
20260901104554 63 313 0.0 0.0 0.00 0.00 0.00 97 1012.2
20260901104029 62 313 0.0 0.0 0.00 0.00 0.00 97 1012.2
20260901103609 62 313 0.0 0.0 0.00 0.00 0.00 97 1012.2
20260901103036 62 313 0.0 0.0 0.00 0.00 0.00 97 1012.1
20260901102521 62 313 0.0 0.0 0.00 0.00 0.00 96 1012.1
20260901102051 62 313 0.0 0.0 0.00 0.00 0.00 96 1012.1
20260901101540 62 313 0.0 0.0 0.00 0.00 0.00 96 1012.0
20260901101017 62 313 0.0 0.0 0.00 0.00 0.00 96 1011.9
20260901100509 63 313 0.0 0.0 0.00 0.00 0.00 96 1011.9
20260901100051 63 313 0.0 0.0 0.00 0.00 0.00 97 1011.9
20260901095528 63 313 0.0 0.0 0.00 0.00 0.00 97 1012.0
20260901095056 63 313 0.0 0.0 0.00 0.00 0.00 97 1012.0
20260901094551 63 313 0.0 0.0 0.00 0.00 0.00 97 1012.0
20260901094108 63 313 0.0 0.0 0.00 0.00 0.00 97 1012.0
20260901093600 62 313 0.0 0.0 0.00 0.00 0.00 96 1011.9
20260901093059 62 313 0.0 0.0 0.00 0.00 0.00 96 1012.0
20260901092506 62 313 0.0 0.0 0.00 0.00 0.00 96 1012.0
20260901092200 62 313 0.0 0.0 0.00 0.00 0.00 96 1011.9
20260901091524 62 313 0.0 0.0 0.00 0.00 0.00 97 1011.9
20260901091058 62 313 0.0 0.0 0.00 0.00 0.00 97 1011.8
20260901090522 62 313 0.0 0.0 0.00 0.00 0.00 96 1011.7
20260901090018 62 313 0.0 0.0 0.00 0.00 0.00 96 1011.8
20260901085556 62 313 0.0 0.0 0.00 0.00 0.00 96 1011.9
20260901085030 62 313 0.0 0.0 0.00 0.00 0.00 96 1011.9
20260901084610 62 313 0.0 0.0 0.00 0.00 0.00 96 1011.9
20260901084020 62 313 0.0 0.0 0.00 0.00 0.00 96 1012.0
20260901083544 62 313 0.0 0.0 0.00 0.00 0.00 95 1011.9
20260901083014 62 313 0.0 0.0 0.00 0.00 0.00 95 1011.9
20260901082558 62 313 0.0 0.0 0.00 0.00 0.00 95 1011.9
20260901082010 62 313 0.0 0.0 0.00 0.00 0.00 96 1011.8
20260901081534 63 313 0.0 0.0 0.00 0.00 0.00 95 1011.9
20260901081002 63 313 0.0 0.0 0.00 0.00 0.00 95 1011.9
20260901080537 63 313 0.0 0.0 0.00 0.00 0.00 95 1011.8
20260901080122 63 313 0.0 0.0 0.00 0.00 0.00 95 1011.8
20260901075516 63 313 0.0 0.0 0.00 0.00 0.00 95 1011.8
20260901075100 63 313 0.0 0.0 0.00 0.00 0.00 95 1011.8
20260901074509 63 313 0.0 0.0 0.00 0.00 0.00 96 1011.7
20260901074031 64 313 0.0 0.0 0.00 0.00 0.00 95 1011.7
20260901073549 64 313 0.0 0.0 0.00 0.00 0.00 95 1011.8
20260901073016 64 313 0.0 0.0 0.00 0.00 0.00 95 1011.8
20260901072544 64 313 0.0 0.0 0.00 0.00 0.00 95 1011.9
20260901072105 64 313 0.0 0.0 0.00 0.00 0.00 95 1012.0
20260901071553 64 313 0.0 0.0 0.00 0.00 0.00 95 1012.1
20260901071011 64 313 0.0 0.0 0.00 0.00 0.00 95 1012.1
20260901070537 64 313 0.0 0.0 0.00 0.00 0.00 95 1012.2
20260901065552 64 313 0.0 0.0 0.00 0.00 0.00 95 1012.2
20260901065020 64 313 0.0 0.0 0.00 0.00 0.00 95 1012.2
20260901064540 64 313 0.0 0.0 0.00 0.00 0.00 95 1012.2
20260901064100 64 313 0.0 0.0 0.00 0.00 0.00 95 1012.3
20260901063539 65 313 0.0 0.0 0.00 0.00 0.00 95 1012.3
20260901063007 65 313 0.0 0.0 0.00 0.00 0.00 95 1012.3
20260901062527 65 313 0.0 0.0 0.00 0.00 0.00 95 1012.4
20260901062047 65 313 0.0 0.0 0.00 0.00 0.00 95 1012.5
20260901061522 65 313 0.0 0.0 0.00 0.00 0.00 94 1012.4
20260901061042 65 313 0.0 0.0 0.00 0.00 0.00 94 1012.4
20260901060602 65 313 0.0 0.0 0.00 0.00 0.00 95 1012.3
20260901060035 65 313 0.0 0.0 0.00 0.00 0.00 94 1012.2
20260901055511 65 313 0.0 0.0 0.00 0.00 0.00 94 1012.1
20260901055032 65 313 0.0 0.0 0.00 0.00 0.00 94 1012.1
20260901054556 66 313 0.0 0.0 0.00 0.00 0.00 94 1012.2
20260901054024 66 313 0.0 0.0 0.00 0.00 0.00 94 1012.1
20260901053545 66 313 0.0 0.0 0.00 0.00 0.00 94 1011.9
20260901053012 66 313 0.0 0.0 0.00 0.00 0.00 93 1012.0
20260901052531 66 313 0.0 0.0 0.00 0.00 0.00 94 1011.9
20260901052051 66 313 0.0 0.0 0.00 0.00 0.00 94 1011.9
20260901051508 66 313 0.0 0.0 0.00 0.00 0.00 94 1011.8
20260901051046 66 313 0.0 0.0 0.00 0.00 0.00 94 1011.8
20260901050520 66 313 0.0 0.0 0.00 0.00 0.00 93 1011.7
20260901050040 66 313 0.0 0.0 0.00 0.00 0.00 93 1011.6
20260901045601 67 313 0.0 0.0 0.00 0.00 0.00 93 1011.5
20260901045032 67 313 0.0 0.0 0.00 0.00 0.00 93 1011.4
20260901044604 67 313 0.0 0.0 0.00 0.00 0.00 93 1011.3
20260901044026 67 313 0.0 0.0 0.00 0.00 0.00 92 1011.3
20260901043546 67 313 0.0 0.0 0.00 0.00 0.00 92 1011.2
20260901043106 67 313 0.0 0.0 0.00 0.00 0.00 93 1011.2
20260901042517 68 313 0.0 0.0 0.00 0.00 0.00 92 1011.2
20260901042050 68 313 0.0 0.0 0.00 0.00 0.00 92 1011.2
20260901041516 68 313 0.0 0.0 0.00 0.00 0.00 92 1011.2
20260901041008 68 313 0.0 0.0 0.00 0.00 0.00 92 1011.3
20260901040528 68 313 0.0 0.0 0.00 0.00 0.00 92 1011.3
20260901040105 69 313 0.0 0.0 0.00 0.00 0.00 91 1011.3
20260901035511 69 313 0.0 0.0 0.00 0.00 0.00 92 1011.4
20260901035044 69 313 0.0 0.0 0.00 0.00 0.00 92 1011.5
20260901034524 69 313 0.0 0.0 0.00 0.00 0.00 92 1011.5
20260901034101 69 313 0.0 0.0 0.00 0.00 0.00 90 1011.5
20260901033506 69 313 0.0 0.0 0.00 0.00 0.00 91 1011.6
20260901033033 70 313 0.0 0.0 0.00 0.00 0.00 90 1011.5
20260901032610 70 313 0.0 0.0 0.00 0.00 0.00 90 1011.4
20260901032020 70 313 0.0 0.0 0.00 0.00 0.00 91 1011.3
20260901031539 70 313 0.0 0.0 0.00 0.00 0.00 91 1011.2
20260901031014 70 313 0.0 0.0 0.00 0.00 0.00 90 1011.4
20260901030533 70 313 0.0 0.0 0.00 0.00 0.00 88 1011.3
20260901030009 70 313 0.0 0.0 0.00 0.00 0.00 87 1011.3
20260901025530 71 313 0.0 0.0 0.00 0.00 0.00 86 1011.3
20260901025050 71 313 0.0 0.0 0.00 0.00 0.00 86 1011.2
20260901024610 71 313 0.0 0.0 0.00 0.00 0.00 87 1011.1
20260901024023 72 313 0.0 0.0 0.00 0.00 0.00 86 1011.1
20260901023545 72 313 0.0 0.0 0.00 0.00 0.00 86 1011.2
20260901023038 72 313 0.0 0.0 0.00 0.00 0.00 85 1011.2
20260901022550 72 313 0.0 1.0 0.00 0.00 0.00 83 1011.0
20260901022110 72 313 0.0 1.0 0.00 0.00 0.00 83 1011.0
20260901021524 72 313 0.0 0.0 0.00 0.00 0.00 83 1011.0
20260901021042 72 313 0.0 0.0 0.00 0.00 0.00 83 1011.0
20260901020602 72 313 0.0 0.0 0.00 0.00 0.00 82 1010.9
20260901020017 73 313 0.0 0.0 0.00 0.00 0.00 82 1010.9
20260901015535 73 313 0.0 0.0 0.00 0.00 0.00 81 1010.8
20260901015056 74 313 0.0 0.0 0.00 0.00 0.00 82 1010.8
20260901014509 74 313 0.0 0.0 0.00 0.00 0.00 81 1010.8
20260901014036 75 313 0.0 0.0 0.00 0.00 0.00 81 1010.7
20260901013505 76 313 0.0 0.0 0.00 0.00 0.00 80 1010.7
20260901013035 76 313 0.0 0.0 0.00 0.00 0.00 80 1010.6
20260901012600 76 313 0.0 0.0 0.00 0.00 0.00 75 1010.6
20260901012018 77 313 0.0 0.0 0.00 0.00 0.00 74 1010.5
20260901011553 77 313 0.0 0.0 0.00 0.00 0.00 73 1010.5
20260901011015 78 313 0.0 1.0 0.00 0.00 0.00 72 1010.4
20260901010546 78 313 0.0 1.0 0.00 0.00 0.00 72 1010.4
20260901010020 79 313 0.0 1.0 0.00 0.00 0.00 72 1010.4
20260901005540 79 313 0.0 2.0 0.00 0.00 0.00 71 1010.5
20260901005006 79 313 0.0 2.0 0.00 0.00 0.00 71 1010.4
20260901004545 80 313 0.0 1.0 0.00 0.00 0.00 70 1010.3
20260901004112 80 313 0.0 3.0 0.00 0.00 0.00 70 1010.3
20260901003527 80 313 0.0 3.0 0.00 0.00 0.00 69 1010.2
20260901003009 81 315 0.0 2.0 0.00 0.00 0.00 69 1010.1
20260901002550 81 314 0.0 2.0 0.00 0.00 0.00 68 1010.2
20260901002045 82 314 0.0 3.0 0.00 0.00 0.00 67 1010.2
20260901001607 82 314 0.0 6.0 0.00 0.00 0.00 66 1010.2
20260901001023 83 304 0.0 7.0 0.00 0.00 0.00 64 1010.2
20260901000551 83 311 1.0 5.0 0.00 0.00 0.00 64 1010.1
20260901000025 84 309 1.0 5.0 0.00 0.00 0.00 61 1010.1
20260831235600 84 200 0.0 2.0 0.00 0.00 0.00 60 1010.0
20260831235045 85 199 0.0 1.0 0.00 0.00 0.00 59 1010.0
20260831234510 85 199 0.0 2.0 0.00 0.00 0.00 58 1010.1
20260831234046 85 199 0.0 3.0 0.00 0.00 0.00 57 1010.0
20260831233524 86 197 0.0 3.0 0.00 0.00 0.00 58 1010.1
20260831233106 86 196 0.0 3.0 0.00 0.00 0.00 58 1010.0
20260831232522 87 306 0.0 4.0 0.00 0.00 0.00 55 1010.0
20260831232047 87 306 1.0 4.0 0.00 0.00 0.00 54 1010.0
20260831231531 88 303 0.0 3.0 0.00 0.00 0.00 55 1009.9
20260831231105 89 303 0.0 3.0 0.00 0.00 0.00 53 1009.8
20260831230526 89 304 0.0 3.0 0.00 0.00 0.00 53 1009.9
20260831230046 89 304 0.0 5.0 0.00 0.00 0.00 56 1009.9
20260831225529 89 304 0.0 5.0 0.00 0.00 0.00 54 1009.9
20260831225019 89 309 0.0 3.0 0.00 0.00 0.00 56 1009.9
20260831224508 89 309 0.0 3.0 0.00 0.00 0.00 54 1009.7
20260831224048 89 311 0.0 3.0 0.00 0.00 0.00 55 1009.9
20260831223531 89 311 0.0 4.0 0.00 0.00 0.00 52 1009.8
20260831223058 90 313 1.0 6.0 0.00 0.00 0.00 53 1009.8
20260831222510 90 315 2.0 6.0 0.00 0.00 0.00 52 1009.6
20260831222052 91 306 2.0 4.0 0.00 0.00 0.00 52 1009.6
20260831221527 91 304 1.0 3.0 0.00 0.00 0.00 52 1009.7
20260831221002 90 279 0.0 5.0 0.00 0.00 0.00 56 1009.5
20260831220541 90 277 0.0 5.0 0.00 0.00 0.00 56 1009.5
20260831220006 91 312 1.0 4.0 0.00 0.00 0.00 53 1009.4
20260831215535 91 317 1.0 4.0 0.00 0.00 0.00 53 1009.5
20260831215014 91 319 0.0 5.0 0.00 0.00 0.00 53 1009.4
20260831214553 92 272 0.0 2.0 0.00 0.00 0.00 52 1009.3
20260831214026 91 271 0.0 3.0 0.00 0.00 0.00 52 1009.4
20260831213545 91 271 1.0 3.0 0.00 0.00 0.00 54 1009.3
20260831213018 91 300 0.0 3.0 0.00 0.00 0.00 54 1009.2
20260831212550 91 319 1.0 4.0 0.00 0.00 0.00 54 1009.3
20260831212032 91 316 2.0 4.0 0.00 0.00 0.00 53 1009.3
20260831211601 91 310 0.0 4.0 0.00 0.00 0.00 57 1009.3
20260831211000 91 321 2.0 4.0 0.00 0.00 0.00 55 1009.2
20260831210544 91 304 0.0 4.0 0.00 0.00 0.00 52 1009.2
20260831210009 91 315 2.0 5.0 0.00 0.00 0.00 54 1009.3
20260831205539 91 309 1.0 5.0 0.00 0.00 0.00 53 1009.2
20260831205013 91 272 0.0 3.0 0.00 0.00 0.00 52 1009.1
20260831204533 91 304 1.0 4.0 0.00 0.00 0.00 60 1009.2
20260831204059 91 306 1.0 4.0 0.00 0.00 0.00 55 1009.2
20260831203526 91 312 0.0 5.0 0.00 0.00 0.00 59 1009.2
20260831203000 91 300 2.0 4.0 0.00 0.00 0.00 55 1009.3
20260831202547 91 178 0.0 3.0 0.00 0.00 0.00 57 1009.2
20260831202012 90 242 0.0 5.0 0.00 0.00 0.00 56 1009.3
20260831201539 90 292 2.0 6.0 0.00 0.00 0.00 56 1009.3
20260831201013 90 311 3.0 6.0 0.00 0.00 0.00 54 1009.3
20260831200532 90 303 2.0 6.0 0.00 0.00 0.00 53 1009.2
20260831200056 90 309 3.0 6.0 0.00 0.00 0.00 56 1009.2
20260831195528 90 337 2.0 5.0 0.00 0.00 0.00 54 1009.3
20260831195001 90 299 1.0 6.0 0.00 0.00 0.00 57 1009.2
20260831194521 90 311 3.0 6.0 0.00 0.00 0.00 53 1009.2
20260831194041 91 306 1.0 4.0 0.00 0.00 0.00 53 1009.2
20260831193515 90 300 2.0 5.0 0.00 0.00 0.00 54 1009.1
20260831193041 90 314 1.0 5.0 0.00 0.00 0.00 56 1009.2
20260831192554 91 329 2.0 5.0 0.00 0.00 0.00 54 1009.1
20260831192026 91 315 1.0 4.0 0.00 0.00 0.00 56 1009.1
20260831191608 91 240 0.0 4.0 0.00 0.00 0.00 56 1009.2
20260831191019 90 306 0.0 4.0 0.00 0.00 0.00 55 1009.1
20260831190539 90 89 0.0 5.0 0.00 0.00 0.00 54 1009.0